| time (UTC) | temp F | wind direction | speed MPH | gust MPH | rain 1hr in | rain 24hr in | rain mn in | humidity % | barometer mb |
| 20260903234553 | 56 | 184 | 1.0 | 0.0 | 0.00 | 0.00 | 0.00 | 55 | 1007.8 |
| 20260903233052 | 55 | 180 | 1.0 | 0.0 | 0.00 | 0.00 | 0.00 | 57 | 1008.0 |
| 20260903231551 | 55 | 204 | 1.0 | 0.0 | 0.00 | 0.00 | 0.00 | 55 | 1007.8 |
| 20260903230101 | 54 | 153 | 1.0 | 0.0 | 0.00 | 0.00 | 0.00 | 58 | 1008.0 |
| 20260903224547 | 53 | 190 | 0.0 | 0.0 | 0.00 | 0.00 | 0.00 | 60 | 1008.3 |
| 20260903223040 | 52 | 203 | 0.0 | 0.0 | 0.00 | 0.00 | 0.00 | 60 | 1008.5 |
| 20260903221540 | 52 | 192 | 0.0 | 0.0 | 0.00 | 0.00 | 0.00 | 60 | 1008.6 |
| 20260903220041 | 51 | 193 | 1.0 | 0.0 | 0.00 | 0.00 | 0.00 | 61 | 1008.6 |
| 20260903214544 | 51 | 187 | 1.0 | 0.0 | 0.00 | 0.00 | 0.00 | 59 | 1008.9 |
| 20260903213043 | 52 | 193 | 0.0 | 0.0 | 0.00 | 0.00 | 0.00 | 61 | 1008.8 |
| 20260903211536 | 52 | 181 | 0.0 | 0.0 | 0.00 | 0.00 | 0.00 | 66 | 1008.9 |
| 20260903210034 | 51 | 180 | 0.0 | 0.0 | 0.00 | 0.00 | 0.00 | 70 | 1008.9 |
| 20260903204533 | 51 | 180 | 0.0 | 0.0 | 0.00 | 0.00 | 0.00 | 72 | 1008.8 |
| 20260903203030 | 51 | 180 | 0.0 | 0.0 | 0.00 | 0.00 | 0.00 | 77 | 1008.6 |
| 20260903201533 | 50 | 180 | 0.0 | 0.0 | 0.00 | 0.00 | 0.00 | 81 | 1008.6 |
| 20260903200027 | 50 | 180 | 0.0 | 0.0 | 0.00 | 0.00 | 0.00 | 82 | 1009.0 |
| 20260903194527 | 49 | 180 | 0.0 | 0.0 | 0.00 | 0.00 | 0.00 | 84 | 1009.2 |
| 20260903193022 | 48 | 180 | 0.0 | 0.0 | 0.00 | 0.00 | 0.00 | 86 | 1009.2 |
| 20260903191518 | 47 | 180 | 0.0 | 0.0 | 0.00 | 0.00 | 0.00 | 88 | 1009.4 |
| 20260903190016 | 46 | 180 | 0.0 | 0.0 | 0.00 | 0.00 | 0.00 | 90 | 1009.6 |
| 20260903184513 | 46 | 180 | 0.0 | 0.0 | 0.00 | 0.00 | 0.00 | 92 | 1009.6 |
| 20260903183011 | 45 | 180 | 0.0 | 0.0 | 0.00 | 0.00 | 0.00 | 93 | 1009.7 |
| 20260903181510 | 45 | 180 | 0.0 | 0.0 | 0.00 | 0.00 | 0.00 | 94 | 1009.8 |
| 20260903180034 | 45 | 180 | 0.0 | 0.0 | 0.00 | 0.00 | 0.00 | 95 | 1009.8 |
| 20260903174509 | 45 | 180 | 0.0 | 0.0 | 0.00 | 0.00 | 0.00 | 95 | 1009.7 |
| 20260903173007 | 45 | 180 | 0.0 | 0.0 | 0.00 | 0.00 | 0.00 | 96 | 1009.8 |
| 20260903171510 | 44 | 180 | 0.0 | 0.0 | 0.00 | 0.00 | 0.00 | 96 | 1009.7 |
| 20260903170008 | 44 | 180 | 0.0 | 0.0 | 0.00 | 0.00 | 0.00 | 96 | 1009.8 |
| 20260903164506 | 43 | 180 | 0.0 | 0.0 | 0.00 | 0.00 | 0.00 | 96 | 1009.9 |
| 20260903163008 | 43 | 180 | 0.0 | 0.0 | 0.00 | 0.00 | 0.00 | 96 | 1010.0 |
| 20260903161505 | 42 | 180 | 0.0 | 0.0 | 0.00 | 0.00 | 0.00 | 96 | 1009.9 |
| 20260903160004 | 42 | 180 | 0.0 | 0.0 | 0.00 | 0.00 | 0.00 | 96 | 1010.0 |
| 20260903154507 | 41 | 180 | 0.0 | 0.0 | 0.00 | 0.00 | 0.00 | 96 | 1010.0 |
| 20260903153002 | 41 | 180 | 0.0 | 0.0 | 0.00 | 0.00 | 0.00 | 96 | 1009.8 |
| 20260903151501 | 41 | 180 | 0.0 | 0.0 | 0.00 | 0.00 | 0.00 | 96 | 1009.9 |
| 20260903144600 | 40 | 180 | 0.0 | 0.0 | 0.00 | 0.00 | 0.00 | 96 | 1009.7 |
| 20260903143100 | 39 | 180 | 0.0 | 0.0 | 0.00 | 0.00 | 0.00 | 95 | 1009.6 |
| 20260903141557 | 39 | 180 | 0.0 | 0.0 | 0.00 | 0.00 | 0.00 | 95 | 1009.6 |
| 20260903140100 | 39 | 180 | 0.0 | 0.0 | 0.00 | 0.00 | 0.00 | 95 | 1009.4 |
| 20260903134555 | 39 | 180 | 0.0 | 0.0 | 0.00 | 0.00 | 0.00 | 95 | 1009.4 |
| 20260903133056 | 38 | 180 | 0.0 | 0.0 | 0.00 | 0.00 | 0.00 | 95 | 1009.4 |
| 20260903131600 | 38 | 180 | 0.0 | 0.0 | 0.00 | 0.00 | 0.00 | 95 | 1009.4 |
| 20260903130057 | 38 | 180 | 0.0 | 0.0 | 0.00 | 0.00 | 0.00 | 95 | 1009.3 |
| 20260903124552 | 38 | 180 | 0.0 | 0.0 | 0.00 | 0.00 | 0.00 | 95 | 1009.2 |
| 20260903123050 | 39 | 180 | 0.0 | 0.0 | 0.00 | 0.00 | 0.00 | 95 | 1009.1 |
| 20260903121548 | 39 | 180 | 0.0 | 0.0 | 0.00 | 0.00 | 0.00 | 94 | 1009.1 |
| 20260903120051 | 39 | 180 | 0.0 | 0.0 | 0.00 | 0.00 | 0.00 | 95 | 1009.2 |
| 20260903114602 | 40 | 180 | 0.0 | 0.0 | 0.00 | 0.00 | 0.00 | 94 | 1009.2 |
| 20260903113044 | 40 | 180 | 0.0 | 0.0 | 0.00 | 0.00 | 0.00 | 94 | 1009.0 |
| 20260903111542 | 41 | 180 | 0.0 | 0.0 | 0.00 | 0.00 | 0.00 | 94 | 1008.7 |
| 20260903110039 | 41 | 180 | 0.0 | 0.0 | 0.00 | 0.00 | 0.00 | 94 | 1008.6 |
| 20260903104539 | 42 | 180 | 0.0 | 0.0 | 0.00 | 0.00 | 0.00 | 95 | 1008.8 |
| 20260903103036 | 42 | 180 | 0.0 | 0.0 | 0.00 | 0.00 | 0.00 | 95 | 1008.9 |
| 20260903101535 | 42 | 180 | 0.0 | 0.0 | 0.00 | 0.00 | 0.00 | 95 | 1008.9 |
| 20260903100035 | 42 | 180 | 0.0 | 0.0 | 0.00 | 0.00 | 0.00 | 95 | 1008.9 |
| 20260903094540 | 42 | 180 | 0.0 | 0.0 | 0.00 | 0.00 | 0.00 | 95 | 1009.0 |
| 20260903093048 | 42 | 180 | 0.0 | 0.0 | 0.00 | 0.00 | 0.00 | 94 | 1008.9 |
| 20260903091532 | 42 | 180 | 0.0 | 0.0 | 0.00 | 0.00 | 0.00 | 94 | 1008.9 |
| 20260903090031 | 43 | 180 | 0.0 | 0.0 | 0.00 | 0.00 | 0.00 | 94 | 1009.1 |
| 20260903084532 | 43 | 180 | 0.0 | 0.0 | 0.00 | 0.00 | 0.00 | 94 | 1009.0 |
| 20260903083026 | 44 | 180 | 0.0 | 0.0 | 0.00 | 0.00 | 0.00 | 94 | 1009.1 |
| 20260903081524 | 44 | 180 | 0.0 | 0.0 | 0.00 | 0.00 | 0.00 | 94 | 1009.2 |
| 20260903080022 | 45 | 180 | 0.0 | 0.0 | 0.00 | 0.00 | 0.00 | 95 | 1008.9 |
| 20260903074521 | 45 | 180 | 0.0 | 0.0 | 0.00 | 0.00 | 0.00 | 95 | 1008.9 |
| 20260903073020 | 45 | 180 | 0.0 | 0.0 | 0.00 | 0.00 | 0.00 | 94 | 1008.8 |
| 20260903071520 | 44 | 180 | 0.0 | 0.0 | 0.00 | 0.00 | 0.00 | 94 | 1008.7 |
| 20260903070020 | 44 | 180 | 0.0 | 0.0 | 0.00 | 0.00 | 0.00 | 94 | 1008.6 |
| 20260903064514 | 45 | 180 | 0.0 | 0.0 | 0.00 | 0.00 | 0.31 | 94 | 1008.4 |
| 20260903063013 | 45 | 180 | 0.0 | 0.0 | 0.00 | 0.00 | 0.31 | 94 | 1008.2 |
| 20260903061511 | 45 | 180 | 0.0 | 0.0 | 0.00 | 0.00 | 0.30 | 94 | 1008.1 |
| 20260903060013 | 45 | 180 | 0.0 | 0.0 | 0.00 | 0.00 | 0.28 | 94 | 1008.3 |
| 20260903054517 | 46 | 180 | 0.0 | 0.0 | 0.00 | 0.00 | 0.28 | 94 | 1008.2 |
| 20260903053007 | 46 | 180 | 0.0 | 0.0 | 0.00 | 0.00 | 0.23 | 94 | 1008.2 |
| 20260903051505 | 46 | 180 | 0.0 | 0.0 | 0.00 | 0.00 | 0.22 | 94 | 1007.7 |
| 20260903050005 | 46 | 180 | 0.0 | 0.0 | 0.00 | 0.00 | 0.22 | 94 | 1007.7 |
| 20260903044503 | 46 | 180 | 0.0 | 0.0 | 0.00 | 0.00 | 0.22 | 94 | 1007.7 |
| 20260903043003 | 46 | 180 | 0.0 | 0.0 | 0.00 | 0.00 | 0.21 | 94 | 1007.6 |
| 20260903041502 | 47 | 180 | 0.0 | 0.0 | 0.00 | 0.00 | 0.21 | 94 | 1007.6 |
| 20260903040100 | 47 | 180 | 0.0 | 0.0 | 0.00 | 0.00 | 0.20 | 94 | 1007.6 |
| 20260903034601 | 47 | 180 | 0.0 | 0.0 | 0.00 | 0.00 | 0.20 | 94 | 1007.4 |
| 20260903033059 | 47 | 180 | 0.0 | 0.0 | 0.00 | 0.00 | 0.20 | 93 | 1007.5 |
| 20260903031557 | 47 | 180 | 0.0 | 0.0 | 0.00 | 0.00 | 0.20 | 93 | 1007.2 |
| 20260903030058 | 47 | 162 | 0.0 | 0.0 | 0.00 | 0.00 | 0.19 | 93 | 1007.3 |
| 20260903024557 | 47 | 162 | 0.0 | 0.0 | 0.00 | 0.00 | 0.18 | 93 | 1007.4 |
| 20260903023056 | 47 | 162 | 0.0 | 0.0 | 0.00 | 0.00 | 0.18 | 92 | 1007.3 |
| 20260903021555 | 48 | 162 | 0.0 | 0.0 | 0.00 | 0.00 | 0.18 | 92 | 1007.1 |
| 20260903020057 | 49 | 162 | 0.0 | 0.0 | 0.00 | 0.00 | 0.18 | 92 | 1006.9 |
| 20260903014608 | 49 | 162 | 0.0 | 0.0 | 0.00 | 0.00 | 0.17 | 91 | 1007.7 |
| 20260903013053 | 50 | 162 | 0.0 | 0.0 | 0.00 | 0.00 | 0.16 | 92 | 1007.4 |
| 20260903011553 | 50 | 162 | 0.0 | 0.0 | 0.00 | 0.00 | 0.16 | 92 | 1007.1 |
| 20260903010052 | 50 | 161 | 0.0 | 0.0 | 0.00 | 0.00 | 0.16 | 92 | 1007.1 |
| 20260903004552 | 51 | 197 | 0.0 | 0.0 | 0.00 | 0.00 | 0.15 | 92 | 1007.0 |
| 20260903003052 | 51 | 203 | 0.0 | 0.0 | 0.00 | 0.00 | 0.14 | 92 | 1006.9 |
| 20260903001555 | 51 | 163 | 0.0 | 0.0 | 0.00 | 0.00 | 0.13 | 91 | 1006.6 |
| 20260903000051 | 51 | 237 | 0.0 | 0.0 | 0.00 | 0.00 | 0.12 | 92 | 1006.3 |